FW6430 Weather Reports


time (UTC)temp
F
wind
direction
speed
knots
gust
knots
rain 1hr
in
rain 24hr
in
rain mn
in
humidity
%
barometer
mb
20260508203352 59 283 0.0 0.0 0.00 0.00 0.00 42 1009.7
20260508202846 59 288 0.0 0.0 0.00 0.00 0.00 42 1009.8
20260508202340 60 61 0.0 0.0 0.00 0.00 0.00 44 1009.7
20260508201834 60 230 0.0 0.0 0.00 0.00 0.00 42 1009.7
20260508201328 59 245 0.0 0.0 0.00 0.00 0.00 43 1009.6
20260508200822 59 273 0.0 0.0 0.00 0.00 0.00 44 1009.5
20260508200316 59 105 0.0 0.0 0.00 0.00 0.00 42 1009.5
20260508195810 59 146 0.0 0.0 0.00 0.00 0.00 44 1009.5
20260508195306 59 190 0.0 0.0 0.00 0.00 0.00 43 1009.4
20260508194758 60 172 1.7 0.0 0.00 0.00 0.00 40 1009.3
20260508194252 60 192 0.9 9.6 0.00 0.00 0.00 41 1009.3
20260508193746 60 20 0.0 9.6 0.00 0.00 0.00 41 1009.2
20260508193240 61 190 0.9 0.0 0.00 0.00 0.00 38 1009.2
20260508192734 61 110 0.0 0.0 0.00 0.00 0.00 41 1009.1
20260508192228 61 110 0.0 0.0 0.00 0.00 0.00 38 1009.1
20260508191722 61 133 0.0 0.0 0.00 0.00 0.00 39 1009.0
20260508191216 62 109 0.0 0.0 0.00 0.00 0.00 39 1009.0
20260508190710 62 156 0.0 0.0 0.00 0.00 0.00 38 1009.0
20260508190204 62 220 0.9 0.0 0.00 0.00 0.00 36 1009.0
20260508185658 63 279 0.0 11.3 0.00 0.00 0.00 38 1009.1
20260508185152 63 220 2.6 11.3 0.00 0.00 0.00 35 1009.1
20260508184646 62 219 0.0 0.0 0.00 0.00 0.00 38 1009.1
20260508184140 62 324 0.0 0.0 0.00 0.00 0.00 36 1008.9
20260508183634 62 130 0.9 0.0 0.00 0.00 0.00 37 1008.9
20260508183128 62 272 0.0 0.0 0.00 0.00 0.00 36 1008.9
20260508182622 62 140 0.0 0.0 0.00 0.00 0.00 38 1009.0
20260508182116 62 198 0.9 0.0 0.00 0.00 0.00 39 1009.0
20260508181610 62 185 0.0 0.0 0.00 0.00 0.00 37 1008.9
20260508181104 62 131 0.9 0.0 0.00 0.00 0.00 35 1009.0
20260508180558 62 74 0.9 0.0 0.00 0.00 0.00 38 1008.9
20260508180052 62 215 1.7 0.0 0.00 0.00 0.00 34 1008.9
20260508175546 62 177 0.0 0.0 0.00 0.00 0.00 35 1009.0
20260508175040 62 198 0.0 0.0 0.00 0.00 0.00 36 1009.1
20260508174534 62 199 0.9 0.0 0.00 0.00 0.00 36 1009.1
20260508174028 63 219 1.7 0.0 0.00 0.00 0.00 35 1009.0
20260508173522 63 97 0.9 0.0 0.00 0.00 0.00 37 1009.0
20260508173016 63 210 2.6 0.0 0.00 0.00 0.00 32 1009.0
20260508172510 63 184 0.0 0.0 0.00 0.00 0.00 36 1009.1
20260508172004 62 161 0.0 0.0 0.00 0.00 0.00 38 1009.2
20260508171458 62 201 0.9 0.0 0.00 0.00 0.00 35 1009.2
20260508170952 63 196 1.7 0.0 0.00 0.00 0.00 39 1009.2
20260508170446 63 130 0.0 0.0 0.00 0.00 0.00 41 1009.3
20260508165940 63 192 0.9 0.0 0.00 0.00 0.00 35 1009.2
20260508165434 62 260 0.9 0.0 0.00 0.00 0.00 38 1009.1
20260508164928 62 178 0.9 0.0 0.00 0.00 0.00 37 1009.2
20260508164422 62 209 3.5 0.0 0.00 0.00 0.00 36 1009.3
20260508163916 61 148 0.0 0.0 0.00 0.00 0.00 41 1009.4
20260508163410 61 183 1.7 0.0 0.00 0.00 0.00 39 1009.4
20260508162904 61 118 0.0 0.0 0.00 0.00 0.00 44 1009.4
20260508162358 61 205 0.9 0.0 0.00 0.00 0.00 39 1009.5
20260508161852 61 7 0.9 0.0 0.00 0.00 0.00 41 1009.2
20260508161346 61 197 0.0 0.0 0.00 0.00 0.00 42 1009.4
20260508160840 60 12 0.0 0.0 0.00 0.00 0.00 39 1009.3
20260508160334 60 202 0.9 0.0 0.00 0.00 0.00 40 1009.5
20260508155828 61 166 0.9 0.0 0.00 0.00 0.00 38 1009.5
20260508155322 61 262 0.9 0.0 0.00 0.00 0.00 42 1009.6
20260508154816 60 175 1.7 0.0 0.00 0.00 0.00 39 1009.5
20260508154310 60 206 1.7 0.0 0.00 0.00 0.00 39 1009.7
20260508153804 60 23 0.0 0.0 0.00 0.00 0.00 42 1009.6
20260508153258 60 177 2.6 0.0 0.00 0.00 0.00 38 1009.8
20260508152752 60 252 0.0 0.0 0.00 0.00 0.00 43 1009.9
20260508152246 59 199 1.7 0.0 0.00 0.00 0.00 42 1010.0
20260508151740 59 201 1.7 0.0 0.00 0.00 0.00 41 1009.9
20260508151234 59 248 1.7 0.0 0.00 0.00 0.00 38 1010.0
20260508150728 59 199 2.6 0.0 0.00 0.00 0.00 40 1010.0
20260508150222 58 221 0.9 0.0 0.00 0.00 0.00 41 1010.1
20260508145716 58 203 1.7 0.0 0.00 0.00 0.00 40 1010.1
20260508145210 58 96 0.0 0.0 0.00 0.00 0.00 41 1010.1
20260508144704 57 236 0.9 0.0 0.00 0.00 0.00 41 1010.2
20260508144158 57 200 1.7 0.0 0.00 0.00 0.00 40 1010.2
20260508143652 57 296 0.0 0.0 0.00 0.00 0.00 41 1010.3
20260508143146 57 157 0.0 0.0 0.00 0.00 0.00 40 1010.3
20260508142640 57 240 0.9 0.0 0.00 0.00 0.00 39 1010.3
20260508142134 57 233 0.9 0.0 0.00 0.00 0.00 39 1010.4
20260508141628 56 258 0.0 0.0 0.00 0.00 0.00 41 1010.4
20260508141122 56 198 2.6 0.0 0.00 0.00 0.00 40 1010.4
20260508140616 56 203 0.9 0.0 0.00 0.00 0.00 41 1010.5
20260508140110 56 217 0.0 0.0 0.00 0.00 0.00 43 1010.6
20260508135604 56 158 0.9 0.0 0.00 0.00 0.00 40 1010.7
20260508135058 56 226 0.0 0.0 0.00 0.00 0.00 44 1010.8
20260508134552 55 164 0.0 0.0 0.00 0.00 0.00 42 1010.8
20260508134046 55 187 0.0 0.0 0.00 0.00 0.00 44 1010.7
20260508133540 55 222 0.9 0.0 0.00 0.00 0.00 44 1010.9
20260508133034 55 249 0.0 0.0 0.00 0.00 0.00 45 1010.9
20260508132528 54 222 0.9 0.0 0.00 0.00 0.00 46 1010.9
20260508132022 54 179 0.9 0.0 0.00 0.00 0.00 45 1011.0
20260508131516 54 240 0.0 0.0 0.00 0.00 0.00 47 1011.0
20260508131010 53 182 0.9 0.0 0.00 0.00 0.00 48 1011.0
20260508130504 53 133 0.0 0.0 0.00 0.00 0.00 50 1011.0
20260508125958 53 131 0.0 0.0 0.00 0.00 0.00 50 1011.1
20260508125452 52 222 0.9 0.0 0.00 0.00 0.00 49 1011.1
20260508124946 52 152 0.0 0.0 0.00 0.00 0.00 49 1011.1
20260508124440 52 184 0.0 0.0 0.00 0.00 0.00 49 1011.1
20260508123934 52 213 0.0 0.0 0.00 0.00 0.00 50 1011.2
20260508123428 51 252 0.0 0.0 0.00 0.00 0.00 51 1011.2
20260508122922 51 218 0.0 0.0 0.00 0.00 0.00 53 1011.2
20260508122416 50 203 0.0 0.0 0.00 0.00 0.00 51 1011.3
20260508121910 50 263 0.9 0.0 0.00 0.00 0.00 52 1011.3
20260508121404 49 260 0.0 0.0 0.00 0.00 0.00 54 1011.2
20260508120858 49 260 0.0 0.0 0.00 0.00 0.00 55 1011.3
20260508120352 49 259 0.0 0.0 0.00 0.00 0.00 57 1011.3
20260508115846 48 260 0.0 0.0 0.00 0.00 0.00 59 1011.3
20260508115340 47 267 0.0 0.0 0.00 0.00 0.00 60 1011.4
20260508114834 47 242 0.0 0.0 0.00 0.00 0.00 62 1011.4
20260508114328 46 220 0.0 0.0 0.00 0.00 0.00 63 1011.4
20260508113822 45 193 0.0 0.0 0.00 0.00 0.00 67 1011.4
20260508113316 45 193 0.0 0.0 0.00 0.00 0.00 69 1011.5
20260508112810 44 193 0.0 0.0 0.00 0.00 0.00 71 1011.5
20260508112306 43 138 0.0 0.0 0.00 0.00 0.00 79 1011.4
20260508111758 43 138 0.0 0.0 0.00 0.00 0.00 85 1011.4
20260508111252 42 138 0.0 0.0 0.00 0.00 0.00 87 1011.4
20260508110746 41 138 0.0 0.0 0.00 0.00 0.00 88 1011.5
20260508110240 41 138 0.0 0.0 0.00 0.00 0.00 89 1011.4
20260508105734 40 138 0.0 0.0 0.00 0.00 0.00 89 1011.4
20260508105228 40 138 0.0 0.0 0.00 0.00 0.00 89 1011.4
20260508104722 39 138 0.0 0.0 0.00 0.00 0.00 89 1011.3
20260508104216 39 138 0.0 0.0 0.00 0.00 0.00 88 1011.2
20260508103710 39 138 0.0 0.0 0.00 0.00 0.00 87 1011.2
20260508103204 39 138 0.0 0.0 0.00 0.00 0.00 87 1011.1
20260508102658 39 138 0.0 0.0 0.00 0.00 0.00 87 1011.0
20260508102152 39 138 0.0 0.0 0.00 0.00 0.00 87 1010.9
20260508101646 39 138 0.0 0.0 0.00 0.00 0.00 87 1010.9
20260508101140 39 138 0.0 0.0 0.00 0.00 0.00 87 1010.9
20260508100634 39 138 0.0 0.0 0.00 0.00 0.00 87 1010.9
20260508100128 38 138 0.0 0.0 0.00 0.00 0.00 86 1010.8
20260508095622 38 138 0.0 0.0 0.00 0.00 0.00 86 1010.8
20260508095116 38 138 0.0 0.0 0.00 0.00 0.00 85 1010.8
20260508094610 38 138 0.0 0.0 0.00 0.00 0.00 85 1010.7
20260508094104 38 138 0.0 0.0 0.00 0.00 0.00 84 1010.7
20260508093558 38 138 0.0 0.0 0.00 0.00 0.00 84 1010.5
20260508093052 38 138 0.0 0.0 0.00 0.00 0.00 84 1010.4
20260508092546 38 138 0.0 0.0 0.00 0.00 0.00 84 1010.5
20260508092040 38 138 0.0 0.0 0.00 0.00 0.00 84 1010.5
20260508091534 38 138 0.0 0.0 0.00 0.00 0.00 84 1010.5
20260508091028 38 138 0.0 0.0 0.00 0.00 0.00 84 1010.4
20260508090522 38 138 0.0 0.0 0.00 0.00 0.00 84 1010.4
20260508090016 38 138 0.0 0.0 0.00 0.00 0.00 84 1010.4
20260508085510 38 138 0.0 0.0 0.00 0.00 0.00 83 1010.4
20260508085004 38 138 0.0 0.0 0.00 0.00 0.00 82 1010.3
20260508084458 38 138 0.0 0.0 0.00 0.00 0.00 82 1010.3
20260508083952 38 138 0.0 0.0 0.00 0.00 0.00 82 1010.4
20260508083446 39 138 0.0 0.0 0.00 0.00 0.00 81 1010.4
20260508082940 39 138 0.0 0.0 0.00 0.00 0.00 80 1010.4
20260508082434 39 138 0.0 0.0 0.00 0.00 0.00 79 1010.3
20260508081928 39 138 0.0 0.0 0.00 0.00 0.00 79 1010.2
20260508081422 39 138 0.0 0.0 0.00 0.00 0.00 78 1010.1
20260508080916 39 138 0.0 0.0 0.00 0.00 0.00 78 1010.0
20260508080410 39 138 0.0 0.0 0.00 0.00 0.00 77 1010.0
20260508075904 40 138 0.0 0.0 0.00 0.00 0.00 77 1009.9
20260508075358 40 138 0.0 0.0 0.00 0.00 0.00 77 1009.8
20260508074852 40 138 0.0 0.0 0.00 0.00 0.00 76 1009.7
20260508074346 40 138 0.0 0.0 0.00 0.00 0.00 76 1009.6
20260508073840 40 138 0.0 0.0 0.00 0.00 0.00 76 1009.5
20260508073334 41 138 0.0 0.0 0.00 0.00 0.00 76 1009.3
20260508072828 41 138 0.0 0.0 0.00 0.00 0.00 77 1009.2
20260508072322 41 138 0.0 0.0 0.00 0.00 0.00 75 1009.2
20260508071816 41 138 0.0 0.0 0.00 0.00 0.00 73 1009.1
20260508071310 41 138 0.0 0.0 0.00 0.00 0.00 73 1009.0
20260508070804 41 138 0.0 0.0 0.00 0.00 0.00 73 1008.9
20260508070258 42 138 0.0 0.0 0.00 0.00 0.00 72 1008.9
20260508065752 42 138 0.0 0.0 0.00 0.00 0.00 71 1008.9
20260508065246 42 138 0.0 0.0 0.00 0.00 0.00 71 1008.7
20260508064740 42 138 0.0 0.0 0.00 0.00 0.00 71 1008.7
20260508064234 42 138 0.0 0.0 0.00 0.00 0.00 70 1008.7
20260508063728 42 138 0.0 0.0 0.00 0.00 0.00 69 1008.7
20260508063222 42 138 0.0 0.0 0.00 0.00 0.00 71 1008.8
20260508062716 42 138 0.0 0.0 0.00 0.00 0.00 69 1008.8
20260508062210 43 138 0.0 0.0 0.00 0.00 0.00 68 1008.9
20260508061704 43 138 0.0 0.0 0.00 0.00 0.00 70 1008.8
20260508061158 43 138 0.0 0.0 0.00 0.00 0.00 68 1008.8
20260508060652 43 138 0.0 0.0 0.00 0.00 0.00 69 1008.8
20260508060146 43 138 0.0 0.0 0.00 0.00 0.00 69 1008.8
20260508055640 43 138 0.0 0.0 0.00 0.00 0.00 69 1008.7
20260508055134 43 138 0.0 0.0 0.00 0.00 0.00 70 1008.7
20260508054628 43 138 0.0 0.0 0.00 0.00 0.00 68 1008.8
20260508054122 43 138 0.0 0.0 0.00 0.00 0.00 71 1008.7
20260508053616 43 138 0.0 0.0 0.00 0.00 0.00 71 1008.7
20260508053110 43 138 0.0 0.0 0.00 0.00 0.00 69 1008.8
20260508052604 43 138 0.0 0.0 0.00 0.00 0.00 69 1008.8
20260508052058 43 138 0.0 0.0 0.00 0.00 0.00 70 1008.8
20260508051552 43 138 0.0 0.0 0.00 0.00 0.00 69 1008.9
20260508051046 43 138 0.0 0.0 0.00 0.00 0.00 69 1008.8
20260508050540 43 138 0.0 0.0 0.00 0.00 0.00 69 1008.9
20260508050034 43 138 0.0 0.0 0.00 0.00 0.00 70 1008.9
20260508045528 44 138 0.0 0.0 0.00 0.00 0.00 71 1008.9
20260508045022 44 138 0.0 0.0 0.00 0.00 0.00 73 1008.9
20260508044516 44 138 0.0 0.0 0.00 0.00 0.00 74 1008.9
20260508044010 44 138 0.0 0.0 0.00 0.00 0.00 74 1008.9
20260508043504 44 138 0.0 0.0 0.00 0.00 0.00 73 1009.0
20260508042958 44 138 0.0 0.0 0.00 0.00 0.00 72 1008.9
20260508042452 44 138 0.0 0.0 0.00 0.00 0.00 72 1008.9
20260508041946 45 138 0.0 0.0 0.00 0.00 0.00 72 1008.9
20260508041440 45 138 0.0 0.0 0.00 0.00 0.00 70 1008.9
20260508040934 45 138 0.0 0.0 0.00 0.00 0.00 71 1009.0
20260508040428 45 138 0.0 0.0 0.00 0.00 0.00 70 1008.9
20260508035922 45 138 0.0 0.0 0.00 0.00 0.00 70 1009.0
20260508035416 45 138 0.0 0.0 0.00 0.00 0.00 70 1009.0
20260508034910 46 138 0.0 0.0 0.00 0.00 0.00 69 1009.0
20260508034404 46 138 0.0 0.0 0.00 0.00 0.00 67 1009.0
20260508033858 46 138 0.0 0.0 0.00 0.00 0.00 65 1008.9
20260508033352 46 138 0.0 0.0 0.00 0.00 0.00 65 1008.9
20260508032846 46 138 0.0 0.0 0.00 0.00 0.00 64 1009.0
20260508032340 47 138 0.0 0.0 0.00 0.00 0.00 63 1009.0
20260508031834 47 138 0.0 0.0 0.00 0.00 0.00 63 1009.0
20260508031328 47 138 0.0 0.0 0.00 0.00 0.00 63 1009.0
20260508030822 47 138 0.0 0.0 0.00 0.00 0.00 63 1009.0
20260508030316 47 138 0.0 0.0 0.00 0.00 0.00 64 1009.0
20260508025810 48 138 0.0 0.0 0.00 0.00 0.00 61 1008.9
20260508025306 48 138 0.0 0.0 0.00 0.00 0.00 60 1008.9
20260508024758 48 138 0.0 0.0 0.00 0.00 0.00 60 1009.0
20260508024252 48 138 0.0 0.0 0.00 0.00 0.00 59 1009.0
20260508023746 49 138 0.0 0.0 0.00 0.00 0.00 58 1008.9
20260508023240 49 138 0.0 0.0 0.00 0.00 0.00 58 1008.8
20260508022734 49 138 0.0 0.0 0.00 0.00 0.00 58 1008.8
20260508022228 49 138 0.0 0.0 0.00 0.00 0.00 57 1008.8
20260508021722 50 138 0.0 0.0 0.00 0.00 0.00 56 1008.9
20260508021216 50 138 0.0 0.0 0.00 0.00 0.00 56 1008.9
20260508020710 50 138 0.0 0.0 0.00 0.00 0.00 56 1008.9
20260508020204 50 138 0.0 0.0 0.00 0.00 0.00 54 1008.9
20260508015658 50 138 0.0 0.0 0.00 0.00 0.00 53 1008.9
20260508015152 51 138 0.0 0.0 0.00 0.00 0.00 52 1008.9
20260508014646 51 138 0.0 0.0 0.00 0.00 0.00 52 1008.9
20260508014140 51 138 0.0 0.0 0.00 0.00 0.00 52 1008.9
20260508013634 51 138 0.0 0.0 0.00 0.00 0.00 52 1008.7
20260508013128 52 138 0.0 0.0 0.00 0.00 0.00 50 1008.7
20260508012622 52 138 0.0 0.0 0.00 0.00 0.00 49 1008.7
20260508012116 52 138 0.0 0.0 0.00 0.00 0.00 50 1008.6
20260508011610 52 138 0.0 0.0 0.00 0.00 0.00 49 1008.5
20260508011104 53 138 0.0 0.0 0.00 0.00 0.00 49 1008.4
20260508010558 53 138 0.0 0.0 0.00 0.00 0.00 48 1008.3
20260508010052 53 138 0.0 0.0 0.00 0.00 0.00 48 1008.2
20260508005546 53 138 0.0 0.0 0.00 0.00 0.00 47 1008.1
20260508005040 53 138 0.0 0.0 0.00 0.00 0.00 47 1008.1
20260508004534 54 138 0.0 0.0 0.00 0.00 0.00 47 1007.9
20260508004028 54 138 0.0 0.0 0.00 0.00 0.00 46 1007.8
20260508003522 54 138 0.0 0.0 0.00 0.00 0.00 46 1007.7
20260508003016 54 138 0.0 0.0 0.00 0.00 0.00 45 1007.5
20260508002510 54 138 0.0 0.0 0.00 0.00 0.00 46 1007.4
20260508002004 55 152 0.0 0.0 0.00 0.00 0.00 45 1007.3
20260508001458 55 152 0.0 0.0 0.00 0.00 0.00 45 1007.3
20260508000952 55 152 0.0 0.0 0.00 0.00 0.00 44 1007.2
20260508000446 56 152 0.0 0.0 0.00 0.00 0.00 45 1007.2
20260507235940 56 152 0.0 0.0 0.00 0.00 0.00 43 1007.2
20260507235434 56 152 0.0 0.0 0.00 0.00 0.00 43 1007.1
20260507234928 57 152 0.0 0.0 0.00 0.00 0.00 42 1007.1
20260507234422 57 152 0.0 0.0 0.00 0.00 0.00 45 1007.0
20260507233916 57 208 0.0 0.0 0.00 0.00 0.00 42 1007.0
20260507233410 57 257 0.0 0.0 0.00 0.00 0.00 41 1007.0
20260507232904 58 258 0.0 0.0 0.00 0.00 0.00 40 1006.9
20260507232358 58 84 0.0 0.0 0.00 0.00 0.00 42 1006.8
20260507231852 58 84 0.0 0.0 0.00 0.00 0.00 41 1006.7
20260507231346 59 133 0.0 0.0 0.00 0.00 0.00 39 1006.7
20260507230840 59 121 0.0 0.0 0.00 0.00 0.00 43 1006.7
20260507230334 59 121 0.0 0.0 0.00 0.00 0.00 40 1006.6
20260507225828 59 124 0.0 0.0 0.00 0.00 0.00 41 1006.5
20260507225322 60 203 0.0 0.0 0.00 0.00 0.00 39 1006.4
20260507224816 60 236 0.0 0.0 0.00 0.00 0.00 40 1006.4
20260507224310 60 55 0.0 0.0 0.00 0.00 0.00 37 1006.4
20260507223804 61 198 0.0 0.0 0.00 0.00 0.00 37 1006.2
20260507223258 61 235 0.0 0.0 0.00 0.00 0.00 36 1006.2
20260507222752 61 241 0.0 0.0 0.00 0.00 0.00 35 1006.1
20260507222246 62 216 0.0 0.0 0.00 0.00 0.00 34 1006.1
20260507221740 62 162 0.0 0.0 0.00 0.00 0.00 35 1006.1
20260507221234 63 193 0.0 0.0 0.00 0.00 0.00 35 1006.1
20260507220728 63 171 0.0 0.0 0.00 0.00 0.00 36 1006.1
20260507220222 63 171 0.0 0.0 0.00 0.00 0.00 36 1005.9
20260507215716 64 179 0.0 0.0 0.00 0.00 0.00 34 1005.9
20260507215210 64 182 0.0 0.0 0.00 0.00 0.00 33 1005.9
20260507214704 65 193 0.0 0.0 0.00 0.00 0.00 34 1005.7
20260507214158 65 71 0.0 0.0 0.00 0.00 0.00 33 1005.7
20260507213652 65 219 0.0 0.0 0.00 0.00 0.00 36 1005.7
20260507213146 66 210 0.0 0.0 0.00 0.00 0.00 33 1005.5
20260507212640 66 193 0.9 0.0 0.00 0.00 0.00 31 1005.6
20260507212134 66 152 0.0 0.0 0.00 0.00 0.00 32 1005.5
20260507211628 66 196 0.0 0.0 0.00 0.00 0.00 31 1005.5
20260507211122 66 206 0.0 0.0 0.00 0.00 0.00 31 1005.5
20260507210616 66 170 0.0 0.0 0.00 0.00 0.00 31 1005.5
20260507210110 66 220 0.0 0.0 0.00 0.00 0.00 32 1005.4
20260507205604 66 202 0.0 0.0 0.00 0.00 0.00 35 1005.3
20260507205058 66 200 0.9 0.0 0.00 0.00 0.00 32 1005.3
20260507204552 66 194 0.9 0.0 0.00 0.00 0.00 32 1005.3
20260507204046 66 208 0.0 0.0 0.00 0.00 0.00 34 1005.3